Погода в Алдане

Хотите узнать прогноз погоды в Алдане? Тогда Вам сюда: Погода в Алдане

Поиск расширенной информации на нашем сайте:

Полезная информация:

Новости сайта



02.01.2020
Опубликован Долгосрочный прогноз погоды по городам России и ближнего зарубежья на январь 2020 года.
Карты: Прогноз на январь и февраль 2020 года, Сравнение прогнозируемой аномалии приземной температуры воздуха на январь 2020 года по разным моделям.




Погода в Алдане - сегодня

Время (UTC), дата Ветер
(°,м/с) 
Видим.   Явления Облачность Т
(°С)
Тd
(°С)
f(%) Тe
(°С)
Pmin
(гПа)
dP
(гПа)
Po
(мм)
O2
(г/м3)
Тmin Tmax R s Состояние
почвы
15 22.01.22 220 (ЮЗ) 10 км  слаб. снег  10/0 средняя, верхняя 
[Ac trans|Cs]
-17.4 -20 80 -20  1034.5  -0.4  709  307           
18 22.01.22 210 (ЮЗ) 10 км  слаб. снег  10/0 средняя, верхняя 
[Ac trans|Cs]
-16.8 -19.3 81 -19  1034.1  -0.2  709  306           
21 22.01.22 240 (ЮЗ) 20000 м  слаб. снег  10/0 средняя, верхняя 
[Ac trans|Cs]
-16.8 -19.6 79 -19  1033.3  -0.7  708  306           
00 23.01.22 250 (З) 4000 м  слаб. снег  10/6 600 м верхняя 
[Sc|Cs]
-16.5 -19 81 -19  1032.4  -0.7  708  305  -19.4    0.7  54  равномерный
сухой снег
100% 
03 23.01.22 250 (З) 4000 м  слаб. снег  10/8 600 м верхняя 
[Sc|Cs]
-15.8 -18.2 82 -18  1031.7  -0.4  708  304           
06 23.01.22 260 (З) 10 км  слаб. снег  10/8 600 м верхняя 
[Sc|Cs]
-15.3 -17.6 83 -18  1031  -0.5  707  303           
09 23.01.22 250 (З) 10 км  слаб. снег  10/4 600 м верхняя 
[Sc|Cs]
-16 -18.3 82 -18  1031.7  0.4  707  304           
12 23.01.22 220 (ЮЗ) 10 км  слаб. снег  10/8 600 м верхняя 
[Sc|Cs]
-16.7 -18.9 83 -19  1031.2  -0.7  707  305    -15.2  0.7     
15 23.01.22 230 (ЮЗ) 10 км  слаб. снег  10/8 600 м верхняя 
[Sc|Cs]
-15.4 -17.7 83 -18  1029.9  -0.8  706  303           
18 23.01.22 220 (ЮЗ) 10 км  слаб. снег  10/8 600 м верхняя 
[Sc|Cs]
-15.6 -17.8 83 -16  1030.1  0.1  706  303           
21 23.01.22 тихо ()   10 км  слаб. снег  10/8 600 м верхняя 
[Sc|Cs]
-16.1 -18.3 83 -16  1029.9  -0.3  706  304           
00 24.01.22 200 (Ю) 10 км  слаб. снег  10/8 600 м средняя, верхняя 
[Sc|Ac trans|Cs]
-16.4 -18.7 82 -17  1030  -0.1  706  304  -16.9    0.4  56  равномерный
сухой снег
100% 
03 24.01.22 250 (З) 20000 м  слаб. снег  10/0 средняя, верхняя 
[Ac trans|Cs]
-14.7 -17.8 77 -17  1028.9  -0.4  706  302           
06 24.01.22 230 (ЮЗ) 20000 м  {снег}  10/0 верхняя 
[Cs]
-14 -18.1 71 -18  1027.4  -1.1  705  301           
09 24.01.22 230 (ЮЗ) 20000 м    10/0 верхняя 
[Cs]
-17.9 -20.4 81 -18  1028.9  0.1  705  305           
12 24.01.22 230 (ЮЗ) 10 км  слаб. снег  10/4 600 м верхняя 
[Sc|Cs]
-18.5 -21.2 79 -21  1028.9  -0.2  705  306    -13.8  0.2     
15 24.01.22 240 (ЮЗ) 20000 м  {снег}  10/3 1000 м верхняя 
[Sc|Cs]
-18.9 -21.4 81 -19  1028.1  -0.9  704  306           
18 24.01.22 220 (ЮЗ) 20000 м  {снег}  ясно 
-20 -22.5 80 -24  1027.5  -0.9  704  307           
21 24.01.22 200 (Ю) 20000 м    ясно 
-20 -22.6 80 -23  1026.9  -0.6  703  307           
00 25.01.22 210 (ЮЗ) 20000 м    10/4 1000 м верхняя 
[Sc|Cs]
-17.9 -20.4 81 -22  1026.5  0.4  703  305  -20.5    0.0  55  равномерный
сухой снег
100% 
03 25.01.22 240 (ЮЗ) 4000 м  снег  10/8 600 м верхняя 
[Sc|Cs]
-16.7 -19.5 79 -21  1026.7  0.6  704  303           
06 25.01.22 240 (ЮЗ) 10 км  слаб. снег  10/6 600 м верхняя 
[Sc|Cs]
-18.2 -21.2 77 -21  1028  0.7  704  306           
09 25.01.22 250 (З) 10 км  слаб. снег  10/8 600 м верхняя 
[Sc|Cs]
-20 -22.7 79 -23  1029.7  0.9  705  308           
12 25.01.22 200 (Ю) 10 км  слаб. снег  10/6 600 м средняя, верхняя 
[Sc|Ac trans|Cs]
-21.7 -24.3 79 -22  1031.6  1.2  706  311    -15.9     
15 25.01.22 200 (Ю) 10 км  слаб. снег  10/6 600 м средняя, верхняя 
[Sc|Ac trans|Cs]
-23.6 -26.6 76 -24  1033  0.6  706  313           
Время (UTC), дата Ветер
(°,м/с) 
Видим.   Явления Облачность Т
(°С)
Тd
(°С)
f(%) Тe
(°С)
Pmin
(гПа)
dP
(гПа)
Po
(мм)
O2
(г/м3)
Тmin Tmax R s Состояние
почвы

Для получения пояснительной информации подведите курсор к названию столбца.

ПОГОДА в Алдане - архив

Всё, что Вы хотите узнать о погоде в Алдане - удобно и подробно!

Выберите нужную дату (начиная с 1 января 2019* года) и нажмите кнопку "Найти".
Будут отображены архивные сводки погоды по пункту Алдан, начиная с указанной даты.


Отображать данные в формате CSV (для использования в таблицах Excel)


Внимание! Наш архив погоды предназначен исключительно для личного некоммерческого использования в познавательных целях. Если Вам необходимы официальные справки о состоянии погоды (для производственных, юридических, коммерческих и т.п. целей), обращайтесь в органы Росгидромета.

*Примечание: данная дата относится к архиву по метеостанциям СССР (Россия, СНГ, Балтия).
Архив по метеостанциям Зарубежной Европы и Азии (кроме Китая) хранится 10 дней, по другим регионам земного шара (Китай, Африка, Америка, Австралия, Океания) - 1 день.

Алдан - район местоположения метеостанции


Название, широта, долгота, высота метеостанции:
Алдан 58.6°ш. 125.4°д. 79 м над ур. моря [Российская Федерация]

Дополнительная информация

В oтличие oт бoльшинства пoгoдных сайтoв мы публикуем пoдрoбную метеoинфoрмацию в детальнoм прoфессиoнальнoм фoрмате.

Характеристики температуры и влажнoсти вoздуха измеряются на высoте 2 м в тени вдали oт зданий и деревьев.
Скoрoсть ветра измеряется на высoте 10 м (на урoвне рoста челoвека скoрoсть ветра ниже в 1.5-2 раза). Если метеoстанция нахoдится в гoрoде или в лесу, тo скoрoсть ветра занижена на 2-4 м/с пo сравнению с oткрытым местoм. Скoрoсть ветра над акватoриями крупных рек и oзёр, а также на вершинах хoлмoв на 2-5 м/с выше, чем в oбычных услoвиях.
Атмoсфернoе давление в разных тoчках местнoсти мoжет значительнo oтличаться oт давления на метеoстанции, в зависимoсти oт услoвий рельефа (при пoдъёме на 10 м давление пoнижается примернo на 1 мм рт.ст.).